Starlink 11683

operational
NORAD ID: 64239 Int'l Des: 2025-119 Owner: SPXS Country: US Constellation: starlink
LEOCIRCULAR

Über Starlink 11683

Beschreibung wird geladen...

Live-Position

3D-Globus wird geladen...

Nächste Überflüge

Höhenverlauf

Altitude vs Time

uPlot chart will show altitude changes over time

Zweizeiliger Elementsatz

1 64239U 25119G 25308.52906461 .00301592 00000-0 22508-2 0 9992
2 64239 43.0016 243.2309 0002982 293.3206 66.7348 15.71037260 25563
Epoch: 4. Nov. 2025 • Age: 8 hours

Aktueller Status

Höhe 360.0 km
Geschwindigkeit 7.70 km/s
Subsatellitenpunkt 42.42°N, 36.11°W
Startdatum 3. Juni 2025
Alter 0.4 years
Typ internet

Technische Details

Klassifizierung Payload
Masse 960.00 kg
Trockenmasse 910.00 kg
Gesamtmasse 960.00 kg
Länge 0.30 m
Durchmesser 4.10 m
Spannweite 29.00 m
Form Box + pan
Hersteller SPXS
Bus-Typ Starlink V2MD
Phasenstatus In Orbit
Besitzer/Staat SPXS/US

Große Konstellationen

Loading constellations...